{"data":{"norad_id":69038,"epoch":"2026-09-20T00:53:04.245216Z","epoch_age_seconds":63293,"freshness":"FRESH","line1":"1 69038U 26101P   26263.03685469  .00012896  00000+0  40110-3 0  9990","line2":"2 69038  97.2823 116.6135 0001645  88.4608 271.6823 15.33444180 21119","mean_motion":15.3344418,"eccentricity":0.0001645,"inclination_deg":97.2823,"raan_deg":116.6135,"arg_perigee_deg":88.4608,"mean_anomaly_deg":271.6823,"bstar":0.0004011,"rev_number":2111,"period_min":93.90625487261,"perigee_km":464.41982843226,"apogee_km":466.67140001234,"semimajor_km":6843.6826142223,"source":"CELESTRAK","updated_at":"2026-09-20T09:00:44.060563Z"}}